Weather History for Murray, KY

Change the Weather History Date:

Saturday, February 2, 2013

  Actual Average (KPAH) Record (KPAH)
Temperature  
Mean Temperature 32 °F 36 °F  
Max Temperature 39 °F 45 °F 66 °F (1997)
Min Temperature 24 °F 27 °F -14 °F (1951)
Degree Days  
Heating Degree Days 34 29  
Month to date heating degree days 58  
Since 1 July heating degree days 2631  
Cooling Degree Days 0 0  
Month to date cooling degree days 0  
Year to date cooling degree days 0  
Moisture  
Dew Point 24 °F    
Average Humidity 68    
Maximum Humidity 87    
Minimum Humidity 52    
Precipitation  
Precipitation 0.00 in 0.14 in 1.79 in (1989)
Month to date precipitation 0.29  
Year to date precipitation 3.97  
Snow  
Snow 0.00 in 0.20 in 3.00 in (1976)
Month to date snowfall 0.3  
Since 1 July snowfall 5.6  
Snow Depth -    
Sea Level Pressure  
Sea Level Pressure 30.17 in    
Wind  
Wind Speed 7 mph (SW)    
Max Wind Speed 18 mph    
Max Gust Speed 24 mph    
Visibility 10 miles    
Events      
T = Trace of Precipitation, MM = Missing Value Source: NWS Daily Summary

Daily Weather History Graph

Daily Weather History Graph

Search for Another Location

Airport:

Trip Planner

Search our weather history database for the weather conditions in past years. The results will help you decide how hot, cold, wet, or windy it might be!

Date:

Astronomy

Feb. 02, 2013 Rise Set
Actual Time 6:54 AM CST 5:20 PM CST
Civil Twilight 6:27 AM CST 5:47 PM CST
Nautical Twilight 5:56 AM CST 6:18 PM CST
Astronomical Twilight 5:25 AM CST 6:49 PM CST
Moon No Moon Rise 10:16 AM CST (2/2)
Length of Visible Light 11h 20m
Length of Day
10h 26m
Waning Gibbous, 59% of the Moon is Illuminated
Feb 2
Waning Gibbous
Feb 3
Last Quarter
Feb 10
New
Feb 17
First Quarter
Feb 25
Full

Hourly Weather History & Observations

Time (CST) Temp. Windchill Dew Point Humidity Pressure Visibility Wind Dir Wind Speed Gust Speed Precip Events Conditions
12:15 AM 24.8 °F - 15.8 °F 69% 30.32 in 10.0 mi Calm Calm - N/A   Scattered Clouds
12:35 AM 24.8 °F 20.5 °F 15.8 °F 69% 30.31 in 10.0 mi SSE 3.5 mph - N/A   Scattered Clouds
12:55 AM 24.8 °F 17.9 °F 15.8 °F 69% 30.30 in 10.0 mi South 5.8 mph - N/A   Scattered Clouds
1:15 AM 24.8 °F 19.1 °F 14.0 °F 64% 30.29 in 10.0 mi South 4.6 mph - N/A   Mostly Cloudy
1:35 AM 24.8 °F 17.9 °F 14.0 °F 64% 30.29 in 10.0 mi South 5.8 mph - N/A   Mostly Cloudy
1:55 AM 24.8 °F 19.1 °F 14.0 °F 64% 30.29 in 10.0 mi South 4.6 mph - N/A   Mostly Cloudy
2:15 AM 26.6 °F 22.6 °F 14.0 °F 59% 30.29 in 10.0 mi South 3.5 mph - N/A   Mostly Cloudy
2:35 AM 26.6 °F 22.6 °F 14.0 °F 59% 30.29 in 10.0 mi South 3.5 mph - N/A   Overcast
2:55 AM 26.6 °F 20.0 °F 15.8 °F 64% 30.27 in 10.0 mi SSE 5.8 mph - N/A   Overcast
3:15 AM 26.6 °F 21.2 °F 15.8 °F 64% 30.26 in 10.0 mi South 4.6 mph - N/A   Overcast
3:35 AM 26.6 °F 21.2 °F 15.8 °F 64% 30.25 in 10.0 mi SSE 4.6 mph - N/A   Overcast
3:55 AM 26.6 °F 21.2 °F 15.8 °F 64% 30.25 in 10.0 mi SSE 4.6 mph - N/A   Overcast
4:15 AM 26.6 °F 21.2 °F 15.8 °F 64% 30.25 in 10.0 mi South 4.6 mph - N/A   Overcast
4:35 AM 28.4 °F 22.2 °F 15.8 °F 59% 30.25 in 10.0 mi South 5.8 mph - N/A   Mostly Cloudy
4:55 AM 28.4 °F 21.2 °F 15.8 °F 59% 30.23 in 10.0 mi South 6.9 mph - N/A   Overcast
5:15 AM 28.4 °F 22.2 °F 15.8 °F 59% 30.24 in 10.0 mi South 5.8 mph - N/A   Overcast
5:35 AM 28.4 °F 21.2 °F 15.8 °F 59% 30.23 in 10.0 mi South 6.9 mph - N/A   Overcast
5:55 AM 28.4 °F 22.2 °F 15.8 °F 59% 30.23 in 10.0 mi South 5.8 mph - N/A   Overcast
6:15 AM 28.4 °F 19.7 °F 15.8 °F 59% 30.21 in 10.0 mi South 9.2 mph - N/A   Overcast
6:35 AM 28.4 °F 19.7 °F 15.8 °F 59% 30.20 in 10.0 mi South 9.2 mph - N/A   Overcast
6:55 AM 28.4 °F 20.4 °F 15.8 °F 59% 30.19 in 10.0 mi South 8.1 mph - N/A   Partly Cloudy
7:15 AM 28.4 °F 20.4 °F 17.6 °F 64% 30.19 in 10.0 mi South 8.1 mph - N/A   Clear
7:35 AM 28.4 °F 22.2 °F 19.4 °F 69% 30.19 in 10.0 mi South 5.8 mph 16.1 mph N/A   Clear
7:55 AM 30.2 °F 22.6 °F 23.0 °F 75% 30.19 in 10.0 mi SSW 8.1 mph - N/A   Clear
8:15 AM 32.0 °F 24.2 °F 24.8 °F 75% 30.19 in 10.0 mi SSW 9.2 mph - N/A   Partly Cloudy
8:35 AM 32.0 °F 24.8 °F 24.8 °F 75% 30.19 in 10.0 mi SSW 8.1 mph - N/A   Mostly Cloudy
8:55 AM 32.0 °F 24.8 °F 24.8 °F 75% 30.18 in 10.0 mi SSW 8.1 mph - N/A   Mostly Cloudy
9:15 AM 33.8 °F 27.0 °F 24.8 °F 70% 30.18 in 10.0 mi SSW 8.1 mph - N/A   Partly Cloudy
9:35 AM 33.8 °F 25.8 °F 23.0 °F 65% 30.17 in 10.0 mi SSW 10.4 mph - N/A   Partly Cloudy
9:55 AM 35.6 °F 29.2 °F 23.0 °F 60% 30.16 in 10.0 mi SSW 8.1 mph - N/A   Partly Cloudy
10:15 AM 35.6 °F 28.6 °F 23.0 °F 60% 30.16 in 10.0 mi SW 9.2 mph - N/A   Partly Cloudy
10:35 AM 37.4 °F 28.9 °F 23.0 °F 56% 30.17 in 10.0 mi WSW 13.8 mph 17.3 mph N/A   Partly Cloudy
10:55 AM 39.2 °F 30.5 °F 23.0 °F 52% 30.16 in 10.0 mi WSW 16.1 mph 21.9 mph N/A   Clear
11:15 AM 39.2 °F 30.5 °F 23.0 °F 52% 30.15 in 10.0 mi WSW 16.1 mph 21.9 mph N/A   Scattered Clouds
11:35 AM 39.2 °F 30.8 °F 23.0 °F 52% 30.15 in 10.0 mi WSW 15.0 mph - N/A   Mostly Cloudy
11:55 AM 39.2 °F 29.8 °F 23.0 °F 52% 30.15 in 10.0 mi West 18.4 mph 24.2 mph N/A   Scattered Clouds
12:15 PM 37.4 °F 28.5 °F 23.0 °F 56% 30.14 in 10.0 mi West 15.0 mph 19.6 mph N/A   Scattered Clouds
12:35 PM 37.4 °F 28.5 °F 24.8 °F 60% 30.13 in 4.0 mi West 15.0 mph 19.6 mph N/A   Mostly Cloudy
12:55 PM 35.6 °F 25.5 °F 30.2 °F 81% 30.13 in 6.0 mi WSW 17.3 mph - N/A   Scattered Clouds
1:15 PM 35.6 °F 25.9 °F 32.0 °F 87% 30.12 in 10.0 mi WSW 16.1 mph 23.0 mph N/A   Mostly Cloudy
1:35 PM 35.6 °F 26.6 °F 32.0 °F 87% 30.10 in 10.0 mi WSW 13.8 mph - N/A   Overcast
1:55 PM 35.6 °F 26.6 °F 32.0 °F 87% 30.10 in 10.0 mi West 13.8 mph 20.7 mph N/A   Overcast
2:15 PM 35.6 °F 26.2 °F 32.0 °F 87% 30.09 in 10.0 mi West 15.0 mph 18.4 mph N/A   Overcast
2:35 PM 37.4 °F 29.3 °F 32.0 °F 81% 30.10 in 10.0 mi West 12.7 mph - N/A   Overcast
2:55 PM 37.4 °F 28.2 °F 32.0 °F 81% 30.10 in 10.0 mi West 16.1 mph 20.7 mph N/A   Overcast
3:15 PM 39.2 °F 31.6 °F 32.0 °F 75% 30.10 in 10.0 mi West 12.7 mph 18.4 mph N/A   Mostly Cloudy
3:35 PM 39.2 °F 32.0 °F 32.0 °F 75% 30.10 in 10.0 mi WSW 11.5 mph - N/A   Partly Cloudy
3:55 PM 39.2 °F 31.6 °F 30.2 °F 70% 30.10 in 10.0 mi West 12.7 mph 18.4 mph N/A   Clear
4:15 PM 39.2 °F 33.0 °F 28.4 °F 65% 30.10 in 10.0 mi West 9.2 mph - N/A   Clear
4:35 PM 39.2 °F 32.5 °F 28.4 °F 65% 30.11 in 10.0 mi West 10.4 mph - N/A   Clear
4:55 PM 39.2 °F 33.6 °F 28.4 °F 65% 30.11 in 10.0 mi West 8.1 mph - N/A   Clear
5:35 PM 37.4 °F 32.8 °F 28.4 °F 70% 30.12 in 10.0 mi West 5.8 mph - N/A   Mostly Cloudy
5:55 PM 37.4 °F 33.8 °F 28.4 °F 70% 30.13 in 10.0 mi West 4.6 mph - N/A   Overcast
6:15 PM 37.4 °F 33.8 °F 28.4 °F 70% 30.14 in 10.0 mi WSW 4.6 mph - N/A   Overcast
6:35 PM 37.4 °F 32.1 °F 28.4 °F 70% 30.14 in 10.0 mi West 6.9 mph - N/A   Overcast
6:55 PM 37.4 °F 32.1 °F 28.4 °F 70% 30.14 in 10.0 mi West 6.9 mph - N/A   Mostly Cloudy
7:15 PM 35.6 °F 30.7 °F 28.4 °F 75% 30.14 in 10.0 mi WSW 5.8 mph - N/A   Mostly Cloudy
7:35 PM 35.6 °F 29.9 °F 28.4 °F 75% 30.14 in 10.0 mi WSW 6.9 mph - N/A   Overcast
7:55 PM 37.4 °F 32.1 °F 28.4 °F 70% 30.14 in 10.0 mi WSW 6.9 mph - N/A   Overcast
8:15 PM 35.6 °F 29.2 °F 28.4 °F 75% 30.14 in 10.0 mi West 8.1 mph - N/A   Overcast
8:35 PM 37.4 °F 30.3 °F 28.4 °F 70% 30.14 in 10.0 mi WSW 10.4 mph - N/A   Overcast
8:55 PM 37.4 °F 29.8 °F 28.4 °F 70% 30.14 in 10.0 mi WSW 11.5 mph - N/A   Mostly Cloudy
9:15 PM 35.6 °F 27.5 °F 28.4 °F 75% 30.14 in 10.0 mi West 11.5 mph - N/A   Clear
9:35 PM 35.6 °F 29.2 °F 28.4 °F 75% 30.14 in 10.0 mi West 8.1 mph - N/A   Mostly Cloudy
9:55 PM 37.4 °F 32.1 °F 28.4 °F 70% 30.14 in 10.0 mi West 6.9 mph - N/A   Overcast
10:15 PM 37.4 °F 32.1 °F 28.4 °F 70% 30.14 in 10.0 mi West 6.9 mph - N/A   Overcast
10:35 PM 35.6 °F 29.9 °F 28.4 °F 75% 30.13 in 10.0 mi West 6.9 mph - N/A   Mostly Cloudy
10:55 PM 35.6 °F 29.9 °F 28.4 °F 75% 30.13 in 10.0 mi West 6.9 mph - N/A   Mostly Cloudy
11:15 PM 35.6 °F 30.7 °F 28.4 °F 75% 30.13 in 10.0 mi West 5.8 mph - N/A   Scattered Clouds
11:35 PM 32.0 °F 28.7 °F 26.6 °F 80% 30.12 in 10.0 mi West 3.5 mph - N/A   Scattered Clouds
11:55 PM 32.0 °F 27.5 °F 26.6 °F 80% 30.11 in 10.0 mi WSW 4.6 mph - N/A   Scattered Clouds